Weather History for Glendive, MT

Change the Weather History Date:

Monday, November 15, 2010

  Actual Average Record
Temperature  
Mean Temperature 32 °F -  
Max Temperature 39 °F 38 °F 64 °F (2001)
Min Temperature 26 °F 19 °F -7 °F (2014)
Degree Days  
Heating Degree Days 32    
Moisture  
Dew Point 30 °F    
Average Humidity 87    
Maximum Humidity 93    
Minimum Humidity 81    
Precipitation  
Precipitation 0.00 in - - ()
Sea Level Pressure  
Sea Level Pressure 29.73 in    
Wind  
Wind Speed 10 mph (WNW)    
Max Wind Speed 21 mph    
Max Gust Speed 22 mph    
Visibility 10 miles    
Events      
Averages and records for this station are not official NWS values.
T = Trace of Precipitation, MM = Missing Value Source: NWS Daily Summary

Daily Weather History Graph

Daily Weather History Graph

Search for Another Location

Airport:

Trip Planner

Search our weather history database for the weather conditions in past years. The results will help you decide how hot, cold, wet, or windy it might be!

Date:

Astronomy

Nov. 15, 2010 Rise Set
Actual Time 7:03 AM MST 4:24 PM MST
Civil Twilight 6:29 AM MST 4:57 PM MST
Nautical Twilight 5:52 AM MST 5:34 PM MST
Astronomical Twilight 5:16 AM MST 6:10 PM MST
Moon 1:27 PM MST (11/15) 12:49 AM MST (11/15)
Length of Visible Light 10h 27m
Length of Day
9h 21m
Waxing Gibbous, 69% of the Moon is Illuminated
Nov 15
Waxing Gibbous
Nov 21
Full
Nov 28
Last Quarter
Dec 5
New
Dec 13
First Quarter

Hourly Weather History & Observations

Time (MST) Temp. Windchill Dew Point Humidity Pressure Visibility Wind Dir Wind Speed Gust Speed Precip Events Conditions
12:15 AM 30.2 °F 21.9 °F 26.6 °F 86% 29.65 in 10.0 mi NNW 9.2 mph - N/A   Mostly Cloudy
12:35 AM 30.2 °F 22.6 °F 26.6 °F 86% 29.64 in 10.0 mi NNW 8.1 mph - N/A   Mostly Cloudy
12:55 AM 28.4 °F 20.4 °F 26.6 °F 93% 29.64 in 10.0 mi NW 8.1 mph - N/A   Mostly Cloudy
1:15 AM 28.4 °F 21.2 °F 26.6 °F 93% 29.64 in 10.0 mi NNW 6.9 mph - N/A   Overcast
1:35 AM 28.4 °F 22.2 °F 26.6 °F 93% 29.65 in 10.0 mi West 5.8 mph - N/A   Overcast
1:55 AM 30.2 °F 25.4 °F 26.6 °F 86% 29.66 in 10.0 mi WNW 4.6 mph - N/A   Overcast
2:15 AM 30.2 °F 25.4 °F 28.4 °F 93% 29.66 in 10.0 mi WNW 4.6 mph - N/A   Overcast
2:35 AM 32.0 °F 24.8 °F 28.4 °F 87% 29.67 in 10.0 mi NNW 8.1 mph - N/A   Overcast
2:55 AM 30.2 °F 22.6 °F 28.4 °F 93% 29.67 in 10.0 mi NW 8.1 mph - N/A   Overcast
3:15 AM 32.0 °F 24.2 °F 28.4 °F 87% 29.68 in 10.0 mi NW 9.2 mph - N/A   Overcast
3:35 AM 32.0 °F 23.6 °F 28.4 °F 87% 29.68 in 10.0 mi WNW 10.4 mph - N/A   Overcast
3:55 AM 32.0 °F 24.2 °F 28.4 °F 87% 29.68 in 10.0 mi WNW 9.2 mph - N/A   Overcast
4:15 AM 32.0 °F 24.2 °F 28.4 °F 87% 29.68 in 10.0 mi WNW 9.2 mph - N/A   Overcast
4:35 AM 30.2 °F 21.3 °F 26.6 °F 86% 29.69 in 10.0 mi WNW 10.4 mph - N/A   Overcast
4:55 AM 30.2 °F 21.9 °F 26.6 °F 86% 29.69 in 10.0 mi NW 9.2 mph - N/A   Scattered Clouds
5:15 AM 28.4 °F 18.5 °F 24.8 °F 86% 29.70 in 10.0 mi NW 11.5 mph - N/A   Clear
5:35 AM 28.4 °F 18.5 °F 24.8 °F 86% 29.70 in 10.0 mi NNW 11.5 mph - N/A   Clear
5:55 AM 28.4 °F 19.1 °F 24.8 °F 86% 29.71 in 10.0 mi NW 10.4 mph - N/A   Clear
6:15 AM 28.4 °F 19.7 °F 26.6 °F 93% 29.72 in 10.0 mi NW 9.2 mph - N/A   Partly Cloudy
6:35 AM 26.6 °F 17.5 °F 23.0 °F 86% 29.72 in 10.0 mi West 9.2 mph - N/A   Scattered Clouds
6:55 AM 28.4 °F 19.7 °F 26.6 °F 93% 29.73 in 10.0 mi WNW 9.2 mph - N/A   Overcast
7:15 AM 26.6 °F 19.1 °F 24.8 °F 93% 29.73 in 10.0 mi West 6.9 mph - N/A   Overcast
7:35 AM 26.6 °F 20.0 °F 24.8 °F 93% 29.75 in 10.0 mi West 5.8 mph - N/A   Scattered Clouds
7:55 AM 28.4 °F 20.4 °F 26.6 °F 93% 29.75 in 9.0 mi WNW 8.1 mph - N/A   Clear
8:15 AM 30.2 °F 21.3 °F 28.4 °F 93% 29.75 in 10.0 mi WNW 10.4 mph - N/A   Partly Cloudy
8:35 AM 33.8 °F 26.4 °F 28.4 °F 81% 29.76 in 10.0 mi West 9.2 mph - N/A   Mostly Cloudy
8:55 AM 33.8 °F 25.3 °F 28.4 °F 81% 29.76 in 10.0 mi West 11.5 mph - N/A   Overcast
9:15 AM 33.8 °F 25.8 °F 30.2 °F 87% 29.76 in 10.0 mi WNW 10.4 mph - N/A   Overcast
9:35 AM 33.8 °F 25.8 °F 30.2 °F 87% 29.76 in 10.0 mi WNW 10.4 mph - N/A   Overcast
9:55 AM 35.6 °F 27.5 °F 30.2 °F 81% 29.76 in 10.0 mi WNW 11.5 mph - N/A   Overcast
10:15 AM 35.6 °F 28.0 °F 30.2 °F 81% 29.77 in 10.0 mi WNW 10.4 mph - N/A   Overcast
10:35 AM 35.6 °F 28.0 °F 32.0 °F 87% 29.77 in 10.0 mi West 10.4 mph - N/A   Overcast
10:55 AM 35.6 °F 28.6 °F 32.0 °F 87% 29.77 in 10.0 mi West 9.2 mph - N/A   Overcast
11:15 AM 37.4 °F 29.8 °F 33.8 °F 87% 29.77 in 10.0 mi WNW 11.5 mph - N/A   Overcast
11:35 AM 37.4 °F 30.3 °F 33.8 °F 87% 29.77 in 10.0 mi WNW 10.4 mph - N/A   Overcast
11:55 AM 37.4 °F 29.3 °F 33.8 °F 87% 29.76 in 10.0 mi WNW 12.7 mph - N/A   Overcast
12:15 PM 37.4 °F 28.9 °F 33.8 °F 87% 29.76 in 10.0 mi WNW 13.8 mph - N/A   Mostly Cloudy
12:35 PM 37.4 °F 29.8 °F 33.8 °F 87% 29.76 in 10.0 mi West 11.5 mph - N/A   Mostly Cloudy
12:55 PM 37.4 °F 29.8 °F 33.8 °F 87% 29.76 in 10.0 mi West 11.5 mph - N/A   Overcast
1:15 PM 37.4 °F 28.9 °F 33.8 °F 87% 29.76 in 10.0 mi WNW 13.8 mph - N/A   Overcast
1:35 PM 37.4 °F 30.3 °F 33.8 °F 87% 29.76 in 10.0 mi WNW 10.4 mph - N/A   Overcast
1:55 PM 37.4 °F 28.9 °F 33.8 °F 87% 29.77 in 10.0 mi WNW 13.8 mph - N/A   Overcast
2:15 PM 37.4 °F 27.8 °F 33.8 °F 87% 29.77 in 10.0 mi NW 17.3 mph - N/A   Overcast
2:35 PM 37.4 °F 27.8 °F 33.8 °F 87% 29.77 in 10.0 mi NW 17.3 mph - N/A   Overcast
3:15 PM 37.4 °F 26.9 °F 33.8 °F 87% 29.77 in 10.0 mi NW 20.7 mph - N/A   Overcast
3:35 PM 39.2 °F 30.2 °F 33.8 °F 81% 29.78 in 10.0 mi NW 17.3 mph - N/A   Overcast
3:55 PM 37.4 °F 28.5 °F 33.8 °F 87% 29.79 in 10.0 mi NW 15.0 mph 21.9 mph N/A   Overcast
4:15 PM 37.4 °F 29.8 °F 32.0 °F 81% 29.79 in 10.0 mi NW 11.5 mph - N/A   Mostly Cloudy
4:35 PM 35.6 °F 27.5 °F 30.2 °F 81% 29.80 in 10.0 mi NW 11.5 mph - N/A   Partly Cloudy
4:55 PM 35.6 °F 28.6 °F 32.0 °F 87% 29.79 in 10.0 mi WNW 9.2 mph - N/A   Mostly Cloudy
5:15 PM 35.6 °F 28.0 °F 30.2 °F 81% 29.79 in 10.0 mi WNW 10.4 mph - N/A   Overcast
5:35 PM 35.6 °F 29.9 °F 30.2 °F 81% 29.79 in 10.0 mi WNW 6.9 mph - N/A   Overcast
5:55 PM 35.6 °F 29.9 °F 30.2 °F 81% 29.79 in 10.0 mi West 6.9 mph - N/A   Overcast
6:15 PM 33.8 °F 27.7 °F 30.2 °F 87% 29.79 in 10.0 mi West 6.9 mph - N/A   Overcast
6:35 PM 32.0 °F 25.6 °F 28.4 °F 87% 29.79 in 10.0 mi West 6.9 mph - N/A   Scattered Clouds
6:55 PM 30.2 °F 26.7 °F 26.6 °F 86% 29.79 in 10.0 mi NW 3.5 mph - N/A   Scattered Clouds
7:15 PM 30.2 °F 22.6 °F 28.4 °F 93% 29.78 in 10.0 mi West 8.1 mph - N/A   Mostly Cloudy
7:35 PM 32.0 °F 25.6 °F 30.2 °F 93% 29.77 in 10.0 mi West 6.9 mph - N/A   Overcast
7:55 PM 30.2 °F 22.6 °F 28.4 °F 93% 29.76 in 10.0 mi West 8.1 mph - N/A   Mostly Cloudy
8:15 PM 30.2 °F 21.9 °F 28.4 °F 93% 29.76 in 10.0 mi West 9.2 mph - N/A   Overcast
8:35 PM 28.4 °F 20.4 °F 26.6 °F 93% 29.75 in 10.0 mi West 8.1 mph - N/A   Mostly Cloudy
8:55 PM 28.4 °F 19.7 °F 26.6 °F 93% 29.75 in 10.0 mi West 9.2 mph - N/A   Scattered Clouds
9:15 PM 28.4 °F 19.7 °F 26.6 °F 93% 29.75 in 10.0 mi West 9.2 mph - N/A   Scattered Clouds
9:35 PM 28.4 °F 22.2 °F 24.8 °F 86% 29.74 in 10.0 mi WNW 5.8 mph - N/A   Overcast
9:55 PM 28.4 °F 22.2 °F 24.8 °F 86% 29.73 in 10.0 mi West 5.8 mph - N/A   Overcast
10:15 PM 28.4 °F 20.4 °F 26.6 °F 93% 29.72 in 10.0 mi WNW 8.1 mph - N/A   Overcast
10:35 PM 28.4 °F 24.6 °F 26.6 °F 93% 29.72 in 10.0 mi WSW 3.5 mph - N/A   Overcast
10:55 PM 30.2 °F 25.4 °F 24.8 °F 80% 29.71 in 10.0 mi WSW 4.6 mph - N/A   Overcast
11:15 PM 30.2 °F 26.7 °F 26.6 °F 86% 29.70 in 10.0 mi West 3.5 mph - N/A   Mostly Cloudy
11:35 PM 30.2 °F 26.7 °F 26.6 °F 86% 29.69 in 10.0 mi SSE 3.5 mph - N/A   Overcast
11:55 PM 28.4 °F 23.3 °F 24.8 °F 86% 29.68 in 10.0 mi SE 4.6 mph - N/A   Mostly Cloudy